Location: Waco, TX
(31.5480°N, 97.1670°W)
Time: 03:38:31
(UTC-05:00)

ISS - Pass Details

Date: 21 May 2017
Orbit: 401 x 408 km, 51.6° (Epoch: 23 June)

Event Time Altitude Azimuth Distance (km) Brightness Sun altitude
Rises 21:52:21 0° 202° (SSW) 2,321 - -17.2°
Reaches altitude 10° 21:54:36 10° 189° (S) 1,464 - -17.6°
Maximum altitude 21:57:27 27° 129° (SE) 817 - -18.0°
Drops below altitude 10° 22:00:18 10° 69° (ENE) 1,470 - -18.5°
Sets 22:02:34 0° 57° (ENE) 2,333 - -18.9°
